EHI
0 0 0 0 0 0 0 0 0 0 0 0 0 0 0 0 0 0 0 0 0 0 0 0 1 3 1 0 0 0 0 0 0 0 0 0 0 0 0 0 0 0 0 0 0 0 0 0 0
0 0 0 0 0 0 0 0 0 0 0 0 0 0 0 0 0 0 0 0 0 0 0 0 1 2 1 0 0 0 0 0 0 0 0 0 0 0 0 0 0 0 0 0 0 0 0 0 0
0 0 0 0 0 0 0 0 0 0 0 0 0 0 0 0 0 0 0 0 0 0 0 0 0 0 0 0 0 0 0 0 0 0 0 0 0 0 0 0 0 0 0 0 0 0 0 0 0
0 0 0 0 0 0 0 0 0 0 0 0 0 0 0 0 0 0 0 0 0 0 0 0 0 0 0 0 0 0 0 0 0 0 0 0 0 0 0 0 0 0 0 0 0 0 0 0 0
0 0 0 0 0 0 0 0 0 0 0 0 0 0 0 0 0 0 0 0 0 0 0 0 0 0 0 0 0 0 0 0 0 0 0 0 0 0 0 0 0 0 0 0 0 0 0 0 0
0 0 0 0 0 0 0 0 0 0 0 0 0 0 0 0 0 0 0 0 0 0 0 0 0 0 0 0 0 0 0 0 0 0 0 0 0 0 0 0 0 0 0 0 0 0 0 0 0
0 0 0 0 0 0 0 0 0 0 0 0 0 0 0 0 0 0 0 0 0 0 0 0 0 0 0 0 0 0 0 0 0 0 0 0 0 0 0 0 0 0 0 0 0 0 0 0 0
0 0 0 0 0 0 0 0 0 0 0 0 0 0 0 0 0 0 0 0 0 0 0 0 0 0 0 0 0 0 0 0 0 0 0 0 0 0 0 0 0 0 0 0 0 0 0 0 0
0 0 0 0 0 0 0 0 0 0 0 0 0 0 0 0 0 0 0 0 0 0 0 0 0 0 0 0 0 0 0 0 0 0 0 0 0 0 0 0 0 0 0 0 0 0 0 0 0
0 0 0 0 0 0 0 0 0 0 0 0 0 0 0 0 0 0 0 0 0 0 0 0 0 0 0 0 0 0 0 0 0 0 0 0 0 0 0 0 0 0 0 0 0 0 0 0 0
0 0 0 0 0 0 0 0 0 0 0 0 0 0 0 0 0 0 0 0 0 0 0 0 0 0 0 0 0 0 0 0 0 0 0 0 0 0 0 0 0 0 0 0 0 0 0 0 0
0 0 0 0 0 0 0 0 0 0 0 0 0 0 0 0 0 0 0 0 0 0 0 0 0 0 0 0 0 0 0 0 0 0 0 0 0 0 0 0 0 0 0 0 0 0 0 0 0
0 0 0 0 0 0 0 0 0 0 0 0 0 0 0 0 0 0 0 0 0 0 0 0 0 0 0 0 0 0 0 0 0 0 0 0 0 0 0 0 0 0 0 0 0 0 0 0 0
0 0 0 0 0 0 0 0 0 0 0 0 0 0 0 0 0 0 0 0 0 0 0 0 0 0 0 0 0 0 0 0 0 0 0 0 0 0 0 0 0 0 0 0 0 0 0 0 0
0 0 0 0 0 0 0 0 0 0 0 0 0 0 0 0 0 0 0 0 0 0 0 0 0 0 0 0 0 0 0 0 0 0 0 0 0 0 0 0 0 0 0 0 0 0 0 0 0
0 0 0 0 0 0 0 0 0 0 0 0 0 0 0 0 0 0 0 0 0 0 0 0 0 0 0 0 0 0 0 0 0 0 0 0 0 0 0 0 0 0 0 0 0 0 0 0 0
0 0 0 0 0 0 0 0 0 0 0 0 0 0 0 0 0 0 0 0 0 0 0 0 0 0 0 0 0 0 0 0 0 0 0 0 0 0 0 0 0 0 0 0 0 0 0 0 0
0 0 0 0 0 0 0 0 0 0 0 0 0 0 0 0 0 0 0 0 0 0 0 0 0 0 0 0 0 0 0 0 0 0 0 0 0 0 0 0 0 0 0 0 0 0 0 0 0
0 0 0 0 0 0 0 0 0 0 0 0 0 0 0 0 0 0 0 0 0 0 0 0 0 0 0 0 0 0 0 0 0 0 0 0 0 0 0 0 0 0 0 0 0 0 0 0 0
0 0 0 0 0 0 0 0 0 0 0 0 0 0 0 0 0 0 0 0 0 0 0 0 0 0 0 0 0 0 0 0 0 0 0 0 0 0 0 0 0 0 0 0 0 0 0 0 0
0 0 0 0 0 0 0 0 0 0 0 0 0 0 0 0 0 0 0 0 0 0 0 0 0 0 0 0 0 0 0 0 0 0 0 0 0 0 0 0 0 0 0 0 0 0 0 0 0
0 0 0 0 0 0 0 0 0 0 0 0 0 0 0 0 0 0 0 0 0 0 0 0 0 0 0 0 0 0 0 0 0 0 0 0 0 0 0 0 0 0 0 0 0 0 0 0 0
0 0 0 0 0 0 0 0 0 0 0 0 0 0 0 0 0 0 0 0 0 0 0 0 0 0 0 0 0 0 0 0 0 0 0 0 0 0 0 0 0 0 0 0 0 0 0 0 0
0 0 0 0 0 0 0 0 0 0 0 0 0 0 0 0 0 0 0 0 0 0 0 0 0 0 0 0 0 0 0 0 0 0 0 0 0 0 0 0 0 0 0 0 0 0 0 0 0
0 0 0 0 0 0 0 0 0 0 0 0 0 0 0 0 0 0 0 0 0 0 0 0 0 0 0 0 0 0 0 0 0 0 0 0 0 0 0 0 0 0 0 0 0 0 0 0 0
0 0 0 0 0 0 0 0 0 0 0 0 0 0 0 0 0 0 0 0 0 0 0 0 0 0 0 0 0 0 0 0 0 0 0 0 0 0 0 0 0 0 0 0 0 0 0 0 0
0 0 0 0 0 0 0 0 0 0 0 0 0 0 0 0 0 0 0 0 0 0 0 0 0 0 0 0 0 0 0 0 0 0 0 0 0 0 0 0 0 0 0 0 0 0 0 0 0
0 0 0 0 0 0 0 0 0 0 0 0 0 0 0 0 0 0 0 0 0 0 0 0 0 0 0 0 0 0 0 0 0 0 0 0 0 0 0 0 0 0 0 0 0 0 0 0 0
0 0 0 0 0 0 0 0 0 0 0 0 0 0 0 0 0 0 0 0 0 0 0 0 0 0 0 0 0 0 0 0 0 0 0 0 0 0 0 0 0 0 0 0 0 0 0 0 0
0 0 0 0 0 0 0 0 0 0 0 0 0 0 0 0 0 0 0 0 0 0 0 0 0 0 0 0 0 0 0 0 0 0 0 0 0 0 0 0 0 0 0 0 0 0 0 0 0
Wind_Speed
8 5 3 3 4 5 8 3 1 2 3 5 8 8 7 6 5 5 5 5 4 7 11 13 13 14 14 13 12 11 9 7 5 5 4 4 4 4 3 1 1 1 2 3 5 7 8 6 4
7 4 3 3 5 7 5 2 2 4 8 10 7 6 6 4 2 3 4 7 5 8 11 12 14 13 13 13 12 11 9 6 5 5 4 5 5 4 3 1 1 2 3 3 5 7 8 7 5
4 3 3 3 4 5 1 1 4 8 10 5 5 4 5 2 2 3 4 9 6 8 10 10 11 12 13 13 12 10 8 6 5 5 5 4 6 5 4 1 1 2 3 4 5 6 6 7 5
4 2 2 5 5 4 5 5 8 10 6 4 6 5 3 3 4 5 5 8 6 8 9 11 10 11 12 12 12 10 7 6 5 5 6 6 6 6 4 2 1 2 3 4 5 6 6 6 6
3 4 5 6 4 3 4 6 6 8 9 5 7 6 1 5 3 2 4 8 6 7 8 10 10 10 11 12 11 10 7 6 6 5 6 6 5 5 4 2 0 2 3 5 6 6 7 8 9
4 4 8 7 5 4 4 3 5 7 7 6 6 6 3 5 4 2 3 6 5 6 7 8 10 8 10 11 11 10 8 7 6 6 5 4 4 2 2 3 2 3 5 6 7 7 8 8 9
6 6 10 9 6 5 2 2 6 8 8 6 7 6 1 7 7 2 3 5 5 6 7 7 10 10 11 9 9 10 9 8 7 7 6 4 2 2 2 3 4 5 6 7 8 10 10 10 11
5 6 10 9 7 5 1 3 5 8 9 6 5 5 3 10 6 1 3 5 6 7 7 8 8 9 10 11 10 9 9 8 8 7 5 3 3 4 3 5 4 6 8 9 10 11 11 12 12
6 10 13 11 7 4 1 5 6 6 8 7 6 6 6 8 4 1 4 6 7 7 7 8 8 8 8 8 7 10 9 9 8 8 7 6 8 7 6 6 3 7 9 10 11 12 12 12 11
9 13 16 8 7 5 5 8 8 8 11 10 7 6 6 8 6 5 5 7 9 10 10 9 10 9 9 7 7 7 8 8 8 7 6 6 6 5 6 4 7 9 10 11 13 13 13 12 9
11 15 12 9 7 5 7 9 7 9 11 9 12 15 13 10 8 7 6 7 8 9 9 10 10 10 9 7 7 5 5 5 7 8 7 6 5 5 5 5 5 8 9 9 8 10 8 8 8
14 14 11 9 5 5 8 9 11 13 16 16 16 15 14 13 10 9 7 5 6 8 9 9 10 10 10 9 7 6 5 5 5 6 7 5 4 5 5 5 6 6 5 6 7 6 9 9 11
19 15 12 10 9 9 11 14 15 18 19 17 15 13 13 12 11 8 5 4 5 6 7 8 10 11 10 9 7 7 7 6 6 5 5 6 5 5 5 5 5 6 6 6 7 8 9 10 10
17 16 15 13 12 11 13 17 15 18 15 13 11 10 8 8 8 6 3 3 4 5 6 7 9 11 11 9 8 7 6 5 5 4 5 6 5 5 5 6 6 6 6 6 7 9 9 8 9
15 14 15 15 13 10 9 17 17 14 10 10 7 4 3 3 3 3 4 4 4 5 5 6 7 9 10 10 8 5 4 4 4 4 5 5 5 6 5 6 6 6 6 7 7 9 8 8 9
17 18 18 17 14 11 10 18 12 6 7 7 5 2 0 2 3 4 4 4 4 5 5 4 2 5 7 6 5 3 2 2 2 2 3 4 5 5 5 5 5 6 6 6 6 7 8 8 9
16 19 19 16 14 14 14 16 9 5 9 11 7 3 2 3 5 6 5 5 5 6 6 6 5 3 5 5 4 3 3 2 2 2 3 3 4 4 3 4 5 6 5 5 5 6 7 9 9
19 19 17 15 9 12 15 16 14 12 11 12 7 5 4 4 6 6 6 6 6 7 8 9 10 9 9 7 7 7 7 7 7 7 8 8 8 8 6 5 7 7 5 6 6 8 8 8 9
17 18 16 14 8 8 14 17 16 14 11 12 9 8 7 7 7 7 7 7 9 10 11 12 12 10 8 7 8 8 8 8 9 9 12 12 11 11 9 7 8 8 7 7 9 8 10 9 9
17 17 16 11 5 7 12 17 17 14 10 8 9 11 11 11 10 9 9 9 10 11 12 13 13 12 11 9 9 9 9 9 8 8 10 12 12 11 8 9 7 7 6 8 8 8 8 8 9
19 18 15 9 6 7 8 13 10 5 4 4 7 10 11 12 12 11 11 10 10 11 12 11 13 13 13 12 9 8 8 7 7 8 8 10 10 10 9 9 8 7 7 7 8 9 9 9 10
19 15 11 8 6 5 2 7 7 7 6 6 9 11 12 12 12 12 11 11 10 11 11 13 14 14 12 11 10 11 9 8 7 6 6 7 9 10 9 9 8 8 7 8 8 9 9 9 9
13 11 10 7 7 8 8 9 8 5 8 9 12 13 13 12 12 12 11 11 10 10 10 12 13 13 12 12 11 11 9 7 5 5 6 6 6 8 9 8 8 8 7 8 9 9 9 8 8
11 11 6 2 4 9 9 10 7 3 2 4 12 14 14 13 12 12 11 10 10 9 10 10 12 12 11 11 11 11 10 8 7 7 6 5 4 5 9 8 8 7 7 8 9 9 9 8 9
13 11 6 6 8 7 4 7 8 1 1 2 12 16 15 14 13 13 13 12 10 10 10 10 12 12 11 11 11 10 9 8 7 6 6 6 5 6 9 8 8 8 8 8 9 8 8 8 9
16 13 7 7 8 5 6 8 4 3 1 1 8 15 15 15 13 13 12 11 10 10 10 10 11 11 10 9 9 8 7 5 5 6 6 6 5 6 8 9 8 9 9 9 9 7 8 8 9
14 10 2 1 2 4 6 5 4 3 2 2 9 16 17 16 14 13 12 11 11 10 10 10 10 10 9 8 8 7 7 6 6 6 6 5 5 5 8 8 9 9 9 10 10 8 10 10 10
5 9 5 4 6 6 4 5 3 3 1 2 10 17 17 16 14 13 11 11 10 9 9 9 9 9 8 7 6 5 6 6 5 5 6 6 6 7 8 9 10 10 10 11 11 10 10 12 12
9 8 7 6 5 4 4 3 2 4 6 3 8 15 17 16 15 13 11 11 10 10 9 9 8 8 7 6 6 6 5 5 5 5 6 6 7 8 9 9 10 11 11 12 11 11 12 13 14
10 11 10 8 7 6 3 3 3 4 4 2 7 12 14 14 13 12 12 11 11 10 9 8 8 7 6 5 5 5 5 4 4 5 6 7 8 8 9 10 10 11 11 12 13 13 13 14 15
Wind_Direction
322 327 296 263 241 233 233 199 270 310 316 330 310 287 284 296 321 9 66 141 128 152 164 169 177 170 169 168 164 163 169 180 196 208 211 215 213 215 208 158 46 21 25 16 353 348 347 349 357
323 310 280 271 255 235 216 207 250 316 319 317 289 249 250 252 309 40 111 147 151 157 166 174 163 173 173 171 169 168 175 188 209 229 236 234 222 215 206 188 48 11 15 11 352 338 344 353 8
299 319 308 269 255 260 230 68 330 322 314 292 276 245 273 327 70 62 87 148 162 162 173 164 162 174 176 174 170 171 180 196 219 237 253 264 241 217 207 199 12 4 4 356 339 329 330 344 354
286 258 252 260 262 271 284 315 330 322 323 291 284 274 221 30 28 52 111 158 167 166 175 164 173 178 180 176 172 174 183 206 229 241 252 275 256 223 206 192 13 356 347 334 327 326 315 312 315
270 264 253 252 267 276 282 313 317 315 322 321 306 293 27 60 28 71 135 168 177 167 174 166 177 186 186 181 176 176 186 211 234 245 253 280 278 238 213 180 220 324 323 320 314 310 308 301 294
249 244 251 256 264 285 280 293 303 310 322 318 316 294 66 52 22 63 141 171 180 169 174 169 175 195 191 189 183 183 192 212 234 249 261 283 312 276 225 203 238 280 301 304 294 288 286 284 286
248 242 253 259 271 279 252 292 307 318 313 327 326 284 121 54 28 40 146 161 168 171 178 181 184 192 198 203 196 193 198 211 230 247 261 273 319 333 290 273 271 277 289 298 297 290 282 277 276
251 242 239 241 252 270 223 294 305 304 308 324 294 281 20 18 17 70 155 165 170 179 192 196 198 202 202 204 201 203 204 210 224 241 257 258 228 225 241 254 262 279 286 291 295 295 292 287 284
228 234 236 232 239 248 234 301 312 292 282 288 269 283 344 354 357 218 187 184 186 194 203 208 211 212 217 220 203 208 210 212 222 227 221 239 250 249 236 257 263 266 272 276 279 283 287 289 272
216 232 235 235 234 260 294 300 306 295 285 283 267 270 303 322 318 291 250 218 204 204 206 208 214 216 219 221 222 225 224 220 227 241 236 246 256 265 275 264 246 259 264 266 265 270 274 268 265
215 233 237 231 235 265 283 289 284 286 286 285 297 305 317 314 304 295 278 246 225 214 209 212 213 216 219 216 224 225 226 231 235 241 246 253 261 260 258 260 241 246 249 262 261 262 262 267 273
221 230 230 234 220 238 269 284 283 274 273 288 294 300 300 298 299 302 297 265 234 225 223 220 217 216 219 221 221 225 223 226 230 233 242 247 252 258 264 264 271 274 271 277 278 277 280 279 278
222 223 224 241 246 259 269 270 280 278 280 288 290 284 281 287 296 302 299 271 246 242 237 231 224 221 215 216 223 227 228 230 232 236 242 245 254 264 273 277 281 282 285 284 284 286 291 290 287
220 228 234 243 252 258 266 275 273 272 289 293 285 276 285 298 307 307 310 296 281 271 262 246 232 225 219 213 216 222 230 233 250 250 256 260 267 279 289 287 286 285 284 286 286 287 288 284 284
220 223 233 235 243 249 266 272 260 269 288 284 281 286 308 340 352 356 352 332 329 314 299 277 254 234 224 221 223 232 240 254 262 269 278 276 275 281 281 282 284 287 291 292 289 292 289 287 287
210 224 234 232 234 239 245 264 270 281 271 275 276 267 256 56 42 34 14 0 358 347 346 344 286 230 214 211 208 216 250 282 285 296 294 289 288 286 288 291 302 314 314 309 308 307 302 298 297
201 215 223 230 230 236 236 262 267 247 270 272 261 232 184 113 72 51 37 29 23 22 29 42 57 102 140 147 135 114 94 65 41 26 9 5 358 348 337 340 340 339 335 329 324 314 314 309 307
195 208 214 218 210 217 231 252 271 279 265 262 244 202 169 124 78 60 55 51 51 52 56 64 72 85 106 114 110 98 84 73 64 57 54 51 49 44 38 32 20 10 4 358 349 335 325 313 313
202 208 211 217 209 230 249 264 276 281 261 248 223 192 168 129 101 87 77 73 72 65 63 63 69 78 92 99 100 95 86 80 72 63 59 56 53 48 43 34 28 17 14 4 354 345 331 325 329
204 203 207 215 204 249 268 275 276 272 258 241 210 186 165 143 124 104 92 80 75 74 72 71 70 72 75 81 83 88 90 78 74 66 56 50 48 43 36 30 22 14 0 358 353 348 331 324 327
203 204 202 197 188 225 278 273 250 216 201 205 198 177 163 152 136 122 106 93 85 77 76 78 78 79 83 90 97 101 98 90 72 59 52 45 43 39 34 25 14 5 357 351 347 344 336 326 323
200 203 201 204 240 235 263 289 257 227 213 191 177 171 163 152 139 130 121 109 96 88 85 83 82 81 81 86 88 88 83 77 64 53 52 50 42 34 25 18 9 1 356 351 346 345 333 328 324
193 180 199 224 252 267 242 261 269 223 237 204 180 172 165 158 148 138 128 118 107 99 93 89 86 81 79 81 84 85 83 81 72 59 47 39 37 32 19 11 5 360 355 352 345 339 337 330 326
143 144 135 160 224 248 231 233 269 215 216 162 173 173 168 161 151 141 134 128 116 109 100 97 93 87 83 82 79 79 80 75 66 51 36 25 23 20 18 4 4 0 356 348 342 336 334 330 326
175 157 151 179 205 229 169 226 255 1 98 184 180 176 171 164 159 154 149 140 130 119 110 107 102 96 90 85 81 80 78 72 57 39 27 18 12 11 6 360 356 356 349 341 338 329 325 320 320
186 185 187 189 193 176 175 232 252 62 77 237 192 175 169 169 166 162 154 145 136 127 122 116 108 102 96 89 85 80 72 62 51 37 24 17 7 3 354 349 345 344 339 334 332 317 316 312 311
170 190 227 318 153 208 200 234 269 144 149 172 184 175 175 174 170 163 155 150 141 134 127 122 115 108 102 97 91 80 68 58 49 34 25 16 6 350 346 341 338 337 334 332 326 315 314 316 313
163 152 156 209 200 211 207 228 212 161 333 143 180 180 177 173 169 163 158 151 141 131 126 123 117 111 105 97 86 76 66 54 41 30 22 9 357 348 340 338 335 332 330 327 322 315 316 315 312
149 158 177 197 249 238 200 155 87 309 314 268 190 183 175 173 170 164 156 148 140 135 134 130 125 120 111 98 88 76 63 46 34 25 12 358 348 342 338 333 328 326 324 323 319 316 316 312 309
184 180 181 192 199 228 246 128 95 316 318 254 179 175 171 170 166 159 153 148 147 145 143 139 135 124 110 95 82 69 54 34 21 16 3 349 342 336 332 325 321 321 320 320 317 314 313 310 308